Location: Newark
(44.4156°N, 12.1972°E)
Time: 04:02:34
(UTC+00:00)

STARLINK-1102 - Pass Details

Date: 29 January 2020
Orbit: 548 x 551 km, 53.0° (Epoch: 21 February)

Event Time Altitude Azimuth Distance (km) Brightness Sun altitude
Rises 16:57:24 0° 303° (WNW) 2,731 7.8 -7.8°
Reaches altitude 10° 16:59:46 10° 312° (NW) 1,837 6.7 -8.2°
Maximum altitude 17:03:40 37° 21° (NNE) 868 4.3 -8.9°
Enters shadow 17:07:13 12° 88° (E) 1,708 5.5 -9.5°
